Hors Challenge

Dour Urban Trail (6.00 km)

samedi 05 septembre 2020

Vous pouvez trouver Le classement original sur : http://www.chronolap.net/
 
 
DOUR URBAN TRAIL
DISTANCE : 6.00 km
samedi 05 septembre 2020
 
Place dos NOM Equipe Catégorie Pl/cat temps temps/km Vitesse
01:00:00                
1 9023 DUBOIS PHILIPPE OBJ Homme 1 00:23:50 03:58 15.10
2 9005 MEUNIER SYLVAIN RUN ATHLETICS Homme 2 00:23:50 03:58 15.10
3 9299 MARISCAL ROMAIN OSGA Homme 3 00:24:29 04:05 14.70
4 9006 ROUSSEAU RAYMOND   Homme 4 00:24:31 04:05 14.68
5 9025 DAMBRUN JORDAN LES TROTTINEURS DE S Homme 5 00:24:38 04:06 14.61
6 9019 VERMEULEN MANOËL JC QUIÉVRAIN Homme 6 00:24:44 04:07 14.55
7 9003 NINANE JONAS OBJ Homme 7 00:24:54 04:09 14.45
8 9010 VAN EYCKE FRANÇOIS FER/TRIGT Homme 8 00:25:09 04:12 14.31
9 9009 SCANNELLA JOSEPH   Homme 9 00:25:58 04:20 13.86
10 9034 BROHET MATHIAS MG NUTRITION Homme 10 00:25:59 04:20 13.85
11 9024 DROSSART MAXIME   Homme 11 00:26:28 04:25 13.60
12 9008 BOLHANDIA SAID   Homme 12 00:26:30 04:25 13.58
13 9011 HANTSON AURÉLIEN   Homme 13 00:26:48 04:28 13.43
14 9031 LABYE RÉMY SG3A Homme 14 00:27:09 04:32 13.26
15 9016 THEATE FRANCOISE SG3A Dame 1 00:27:17 04:33 13.19
16 9015 KAPUCZINSKI ABELINE OBJ Dame 2 00:27:18 04:33 13.18
17 9167 MENEGOLI FABRIZZIO   Homme 15 00:27:30 04:35 13.09
18 9298 HANNUISE CHRISTEL   Dame 3 00:27:31 04:35 13.08
19 9022 BEL HASSANI ISMAIL SOUTIEN AUX SANS-PAP Homme 16 00:27:40 04:37 13.01
20 9183 LUPINETTI SÉBASTIEN   Homme 17 00:27:42 04:37 12.99
21 9027 REMY ARNAUD COURIR À COLLERET Homme 18 00:27:43 04:37 12.98
22 9028 GUSTIN JEAN PASCAL   Homme 19 00:27:58 04:40 12.87
23 9155 BARBUTO MICHEL OBJ Homme 20 00:28:04 04:41 12.82
24 9040 LENNE CLAUDE COURIR À COLLERET Homme 21 00:28:26 04:44 12.66
25 9162 PAQUOT ERWAN SG3A Homme 22 00:28:32 04:45 12.61
26 9216 AMAND SÉBASTIEN RUN FOR FUN BOUSSU Homme 23 00:28:45 04:48 12.52
27 9300 DELPLACE ALAIN RUN FOR FUN BOUSSU Homme 24 00:28:46 04:48 12.51
28 9014 HENRIET ALEXANDRE OBJ Homme 25 00:28:50 04:48 12.48
29 9164 LABIE CLAUDY TEAM ROCKET DS Homme 26 00:29:13 04:52 12.32
30 9035 GUCHET MAXIME MG NUTRITION Homme 27 00:29:50 04:58 12.06
31 9068 VENTITINQUE LUCA   Homme 28 00:30:03 05:01 11.98
32 9026 DIEU SÉBASTIEN OBJ Homme 29 00:30:20 05:03 11.86
33 9062 LORIMIER XAVIER   Homme 30 00:30:43 05:07 11.72
34 9038 ALAZA ABDOUL SOUTIEN AUX SANS-PAP Homme 31 00:31:13 05:12 11.53
35 9198 LEPAPE MICHAEL LES MUPPETS Homme 32 00:31:15 05:13 11.52
36 9056 JEANSON VINCENT TOUS À BORD Homme 33 00:31:22 05:14 11.47
37 9194 HEULLE NAOMI SAINT GHISLAIN TRI A Dame 4 00:31:28 05:15 11.44
38 9045 CALCUS SÉBASTIEN   Homme 34 00:31:31 05:15 11.42
39 9199 DI VAIRA FLORENCE LES MUPPETS Dame 5 00:31:31 05:15 11.42
40 9206 NIS DANIEL RUN FOR FUN BOUSSU Homme 35 00:31:38 05:16 11.38
41 9060 PRZESZLACKI LOGAN   Homme 36 00:31:42 05:17 11.35
42 9166 LEONETTI GAËTAN   Homme 37 00:31:46 05:18 11.33
43 9044 LEONETTI GÉRARD RUN FOR FUN BOUSSU Homme 38 00:31:52 05:19 11.29
44 9033 VANTREPOTE GAËTAN   Homme 39 00:32:00 05:20 11.25
45 9205 BALDARELLI FABIO CIAO ITALIA Homme 40 00:32:10 05:22 11.19
46 9053 SPITALERI MARIO CIAO ITALIA Homme 41 00:32:10 05:22 11.19
47 9200 COMIDA SANDRO LES MUPPETS Homme 42 00:32:14 05:22 11.16
48 9184 DEPIENNE ANGÉLIQUE   Dame 6 00:32:18 05:23 11.14
49 9210 RENAUT OPHELIE C C RUNNING Dame 7 00:32:27 05:25 11.09
50 9061 WATTIEZ BENOIT   Homme 43 00:32:39 05:27 11.02
51 9032 CORNU KILIAN   Homme 44 00:32:42 05:27 11.01
52 9041 DUBOIS MARC FIT&RUN Homme 45 00:32:46 05:28 10.98
53 9297 X FRANÇOIS   Homme 46 00:32:48 05:28 10.97
54 9039 GAYE MODOU SOUTIEN AUX SANS-PAP Homme 47 00:33:26 05:34 10.76
55 9055 SAINT-GHISLAIN LIONEL   Homme 48 00:33:27 05:35 10.76
56 9106 ROINICH UGO   Homme 49 00:33:42 05:37 10.68
57 9052 LAENENS FRANCIS AXA TEAM Homme 50 00:34:11 05:42 10.53
58 9043 DEHON GENEVIÈVE   Dame 8 00:34:29 05:45 10.44
59 9175 INSALACA PINO OBJ Homme 51 00:34:34 05:46 10.41
60 9084 ESTIEVENART ERIC   Homme 52 00:34:42 05:47 10.37
61 9083 GALLEZ LAURENT STEP AND RUN Homme 53 00:34:56 05:49 10.30
62 9100 CARLINO CÉLINE   Dame 9 00:34:59 05:50 10.29
63 9101 DIGIUGNO STÉPHANE   Homme 54 00:35:04 05:51 10.26
64 9066 AGOSTINO MAXIME SOUTIEN AUX SANS-PAP Homme 55 00:35:35 05:56 10.11
65 9063 CAMMERS STEVE   Homme 56 00:35:38 05:56 10.10
66 9085 MARRAS ALAND   Homme 57 00:35:57 06:00 10.01
67 9197 DI ANTONIO MELISSA   Dame 10 00:36:19 06:03 9.91
68 9201 LORIMIER DAISY LES MUPPETS Dame 11 00:36:20 06:03 9.91
69 9080 ANDRÉ BRYAN ZATAC Homme 58 00:36:20 06:03 9.91
70 9099 BORRY PHILIPPE   Homme 59 00:36:26 06:04 9.88
71 9296 VANDERSTOCKEN SYLVIE   Dame 12 00:36:33 06:06 9.85
72 9295 FROMONT FRÉDÉRIC   Homme 60 00:36:34 06:06 9.84
73 9091 LHEUREUX XAVIER   Homme 61 00:36:51 06:09 9.77
74 9301 VITALE ADRIANO   Homme 62 00:36:52 06:09 9.76
75 9093 TASSIGNON MANON   Dame 13 00:36:59 06:10 9.73
76 9153 BERTÉE NADÈGE   Dame 14 00:37:15 06:13 9.66
77 9154 ANSSEAU EMILIE   Dame 15 00:37:16 06:13 9.66
78 9087 FAVART JEAN-FRANÇOIS   Homme 63 00:37:33 06:16 9.58
79 9178 COUGNEAU BENOIT   Homme 64 00:37:37 06:16 9.57
80 9104 BACHY LAURENCE RUN FOR FUN BOUSSU Dame 16 00:37:42 06:17 9.55
81 9105 POLAIN LUDIVINE RUN FOR FUN BOUSSU Dame 17 00:37:43 06:17 9.54
82 9092 GOUILLEUX XAVIER   Homme 65 00:38:00 06:20 9.47
83 9204 GIFFROI JÉRÔME   Homme 66 00:38:03 06:21 9.46
84 9013 AMIRAT FRANTZ   Homme 67 00:38:20 06:23 9.39
85 9086 VANOUDEWATER OLIVIER TEAM ROCKET DS Homme 68 00:38:34 06:26 9.33
86 9073 CASTIEAU SANDRINE ZATACRAC Dame 18 00:38:38 06:26 9.32
87 9187 DEVILLERS SOPHIE   Dame 19 00:38:46 06:28 9.28
88 9188 PISTONE LIONEL   Homme 69 00:38:46 06:28 9.28
89 9207 SKWIRZYNSKI OKSANA LES AMIS JOGGEURS Dame 20 00:38:52 06:29 9.26
90 9107 LABIE CÉLINE LES AMIS JOGGEURS Dame 21 00:38:53 06:29 9.26
91 9112 ABRASSART STÉPHANIE STEP AND RUN Dame 22 00:38:54 06:29 9.25
92 9176 INSALACA OPHÉLIE   Dame 23 00:38:58 06:30 9.24
93 9174 SANTUCCI NATHALIE OBJ Dame 24 00:38:59 06:30 9.23
94 9057 DAMIEN ERIK RUN FOR FUN BOUSSU Homme 70 00:39:01 06:30 9.22
95 9059 VERMEULEN LOUANA JC QUIÉVRAIN Dame 25 00:39:04 06:31 9.21
96 9067 VENTICINQUE LAETITIA   Dame 26 00:39:57 06:40 9.01
97 9076 VAN DRIESSCHE HUGO VELAINES Homme 71 00:39:58 06:40 9.00
98 9074 VANDERAA JEAN-MARC   Homme 72 00:40:24 06:44 8.91
99 9147 SACRE LÉA JCPMF DOUR Dame 27 00:40:46 06:48 8.83
100 9069 DEMARETS JOËL NAC H.T.T. Homme 73 00:40:55 06:49 8.80
101 9115 VRANCKEN JURGEN   Homme 74 00:40:55 06:49 8.80
102 9114 FERON CHLOÉ   Dame 28 00:40:57 06:50 8.79
103 9193 DE WULF GILLES   Homme 75 00:41:00 06:50 8.78
104 9192 VAN DAMME LIDWINNE   Dame 29 00:41:00 06:50 8.78
105 9097 STIÉVENART MARIE   Dame 30 00:41:02 06:50 8.77
106 9047 LAWSON PATRICK SOUTIEN AUX SANS-PAP Homme 76 00:41:12 06:52 8.74
107 9096 MATTA SERGIO   Homme 77 00:41:17 06:53 8.72
108 9075 VAN DRIESSCHE TAO VELAINES Homme 78 00:42:03 07:01 8.56
109 9077 AUDOOR ALAIN VELAINES Homme 79 00:42:04 07:01 8.56
110 9102 FERDIN RAYMONDE   Dame 31 00:42:12 07:02 8.53
111 9139 MAQUET GENEVIÈVE   Dame 32 00:42:29 07:05 8.47
112 9109 JACQUEMIN BENOIT SPIBO Homme 80 00:42:30 07:05 8.47
113 9095 LAGNEAUX ISABELLE   Dame 33 00:42:32 07:05 8.46
114 9113 SALBERTER EMMANUELLE   Dame 34 00:42:35 07:06 8.45
115 9195 HENRY JONATHAN TENNIS CLUB BELVÉDÈR Homme 81 00:42:40 07:07 8.43
116 9196 BECQUET SOPHIE TENNIS CLUB LE BELVÉ Dame 35 00:42:40 07:07 8.43
117 9064 CARDINAL VALÉRIE SOUTIEN AUX SANS-PAP Dame 36 00:42:52 07:09 8.40
118 9108 GICART EMILIE   Dame 37 00:42:59 07:10 8.37
119 9050 SALL ALPHA OUMAR SOUTIEN AUX SANS-PAP Homme 82 00:43:24 07:14 8.29
120 9145 MICHEL VINCIANE JCPMF DOUR Dame 38 00:43:25 07:14 8.29
121 9072 PIRET ALAIN ZATACRAC Homme 83 00:44:15 07:23 8.13
122 9152 PECHER VALÉRIE   Dame 39 00:44:48 07:28 8.03
123 9136 TANI ROBERTO HAPPY JOG'TEAM Homme 84 00:45:01 07:30 7.99
124 9054 RENARD JACQUES SPIBO Homme 85 00:45:05 07:31 7.98
125 9143 CONSIGLIO JULIE JCPMF DOUR Dame 40 00:45:47 07:38 7.86
126 9132 LERAT JOSIANE HAPPY JOG'TEAM Dame 41 00:45:57 07:40 7.83
127 9134 LECLERCQ BENJAMIN HAPPY JOG'TEAM Homme 86 00:45:58 07:40 7.83
128 9135 CORNEZ CHRISTOPHE HAPPY JOG'TEAM Homme 87 00:45:59 07:40 7.83
129 9133 LECLERCQ YVES HAPPY JOG'TEAM Homme 88 00:46:01 07:40 7.82
130 9071 NJIA GATCHA INES ESTELLE SOUTIEN AUX SANS-PAP Dame 42 00:46:05 07:41 7.81
131 9151 MATHUREL PRISCILLA JCPMF DOUR Dame 43 00:46:12 07:42 7.79
132 9209 PINOY SEVERINE SPIBO Dame 44 00:46:50 07:48 7.68
133 9111 SPARKS MARTY SPIBO Dame 45 00:46:50 07:48 7.68
134 9124 CALAMERA DANIELA HAPPY JOG'TEAM Dame 46 00:46:58 07:50 7.66
135 9128 MOULIN SOPHIE HAPPY JOG'TEAM Dame 47 00:46:58 07:50 7.66
136 9127 CUVELIER NATHALIE HAPPY JOG'TEAM Dame 48 00:47:00 07:50 7.66
137 9129 MIMMO ANGELA HAPPY JOG'TEAM Dame 49 00:47:01 07:50 7.65
138 9081 FLAMENT EMILIE   Dame 50 00:47:35 07:56 7.56
139 9082 VANHEESBEKE SARAH   Dame 51 00:47:36 07:56 7.56
140 9141 BROCHARD CAMILLE FIT&RUN Dame 52 00:47:50 07:58 7.52
141 9121 KELLNER GEORGES HAPPY JOG'TEAM Homme 89 00:47:59 08:00 7.50
142 9120 YAHIAOUI HICHA HAPPY JOG'TEAM Dame 53 00:48:00 08:00 7.50
143 9123 DENIS JOHANN HAPPY JOG'TEAM Homme 90 00:48:00 08:00 7.50
144 9122 GEMBAUVE CYNTHIA HAPPY JOG'TEAM Dame 54 00:48:01 08:00 7.49
145 9140 ANDRÉ SYLVIE FIT&RUN Dame 55 00:48:03 08:01 7.49
146 9119 ACKERMANN MADISSON HAPPY JOG'TEAM Dame 56 00:48:04 08:01 7.49
147 9117 LEBON DELPHINE HAPPY JOG'TEAM Dame 57 00:49:02 08:10 7.34
148 9118 MANOUVRIER MÉLANIE HAPPY JOG'TEAM Dame 58 00:49:03 08:11 7.34
149 9116 DUPONT CANDY HAPPY JOG'TEAM Dame 59 00:49:03 08:11 7.34
150 9203 MININNI NADIA LES MUPPETS Dame 60 00:49:38 08:16 7.25
151 9202 COMIDA ALBERTO LES MUPPETS Homme 91 00:49:38 08:16 7.25
152 9065 VANHOOF MYRIAM SOUTIEN AUX SANS-PAP Dame 61 00:50:36 08:26 7.11
153 9049 CIFALDI KELLY SOUTIEN AUX SANS-PAP Dame 62 00:50:51 08:29 7.08
154 9142 DENONCIN SYLVIE JCPMF DOUR Dame 63 00:53:10 08:52 6.77
155 9144 ABRASSART FANNY JCPMF DOUR Dame 64 00:53:10 08:52 6.77
156 9138 MAURY DOMINIQUE HAPPY JOG'TEAM Dame 65 00:54:16 09:03 6.63
157 9208 ABRASSART LUDIVINE   Dame 66 00:54:27 09:05 6.61
158 9079 RAUSCH LAETITIA LAETITIA VENTICINQUE Dame 67 00:54:51 09:09 6.56
159 9078 FLASSE MÉLANIE LAETITIA VENTICINQUE Dame 68 00:55:16 09:13 6.51
160 9131 GÉRARD CHRISTIAN HAPPY JOG'TEAM Homme 92 00:55:17 09:13 6.51
161 9130 GÉRARD STEPHEN HAPPY JOG'TEAM Homme 93 00:55:46 09:18 6.45
162 9172 DEMOUSTIER AMANDINE   Dame 69 01:00:27 10:05 5.95
163 9171 HIMPE GABRIELLE   Dame 70 01:00:27 10:05 5.95
164 9170 CONTINO MARIA RUN FOR FUN BOUSSU Dame 71 01:07:09 11:12 5.36
165 9169 CONTINO ANTONELLA RUN FOR FUN BOUSSU Dame 72 01:07:09 11:12 5.36